• în Republica Moldova
  • Lista ţărilor
  • Pe 7 zile
  • Temperatura apei
  • Hartă satelitară
  • Meteo pe hartă
  • Widget-uri
  • user-avatar
    Intrare

    Meteo pe oră la Biskira

    Astăzi, 20 Noiembrie, Luni

    Timp Temperatura Precipitaţii Vânt Presiune Umiditate
    00:00 +14°C° 0 mm 1 m/s 757 mmHg 46%
    01:00 +14°C° 0 mm 1 m/s 757 mmHg 46%
    02:00 +14°C° 0 mm 1 m/s 757 mmHg 47%
    03:00 +13°C° 0 mm 1 m/s 757 mmHg 47%
    04:00 +13°C° 0 mm 1 m/s 757 mmHg 47%
    05:00 +13°C° 0 mm 1 m/s 757 mmHg 46%
    06:00 +13°C° 0 mm 1 m/s 757 mmHg 47%
    07:00 +14°C° 0 mm 1 m/s 758 mmHg 42%
    08:00 +16°C° 0 mm 1 m/s 758 mmHg 36%
    09:00 +19°C° 0 mm 1 m/s 758 mmHg 31%
    10:00 +20°C° 0 mm 1 m/s 758 mmHg 29%
    11:00 +21°C° 0 mm 1 m/s 758 mmHg 27%
    12:00 +22°C° 0 mm 1 m/s 758 mmHg 25%
    13:00 +22°C° 0 mm 1 m/s 758 mmHg 24%
    14:00 +22°C° 0 mm 1 m/s 757 mmHg 24%
    15:00 +22°C° 0 mm 1 m/s 757 mmHg 23%
    16:00 +21°C° 0 mm 1 m/s 757 mmHg 27%
    17:00 +19°C° 0 mm 1 m/s 757 mmHg 31%
    18:00 +16°C° 0 mm 0 m/s 757 mmHg 35%
    19:00 +15°C° 0 mm 0 m/s 758 mmHg 36%
    20:00 +15°C° 0 mm 0 m/s 758 mmHg 37%
    21:00 +14°C° 0 mm 0 m/s 758 mmHg 38%
    22:00 +14°C° 0 mm 0 m/s 758 mmHg 39%
    23:00 +13°C° 0 mm 0 m/s 758 mmHg 40%

    Mâine, 21 Noiembrie, Marţi

    Timp Temperatura Precipitaţii Vânt Presiune Umiditate
    00:00 +13°C° 0 mm 0 m/s 758 mmHg 41%
    01:00 +12°C° 0 mm 0 m/s 758 mmHg 42%
    02:00 +12°C° 0 mm 0 m/s 758 mmHg 42%
    03:00 +12°C° 0 mm 0 m/s 757 mmHg 43%
    04:00 +11°C° 0 mm 0 m/s 757 mmHg 43%
    05:00 +11°C° 0 mm 0 m/s 758 mmHg 43%
    06:00 +11°C° 0 mm 0 m/s 758 mmHg 43%
    07:00 +13°C° 0 mm 0 m/s 758 mmHg 38%
    08:00 +15°C° 0 mm 0 m/s 758 mmHg 33%
    09:00 +17°C° 0 mm 0 m/s 758 mmHg 28%
    10:00 +18°C° 0 mm 0 m/s 758 mmHg 27%
    11:00 +21°C° 0 mm 1 m/s 758 mmHg 26%
    12:00 +21°C° 0 mm 1 m/s 757 mmHg 25%
    13:00 +21°C° 0 mm 1 m/s 757 mmHg 25%
    14:00 +22°C° 0 mm 1 m/s 757 mmHg 24%
    15:00 +21°C° 0 mm 2 m/s 756 mmHg 24%
    16:00 +20°C° 0 mm 1 m/s 756 mmHg 28%
    17:00 +19°C° 0 mm 1 m/s 757 mmHg 31%
    18:00 +18°C° 0 mm 1 m/s 757 mmHg 35%
    19:00 +16°C° 0 mm 1 m/s 757 mmHg 35%
    20:00 +16°C° 0 mm 1 m/s 757 mmHg 36%
    21:00 +15°C° 0 mm 1 m/s 757 mmHg 36%
    22:00 +15°C° 0 mm 1 m/s 757 mmHg 38%
    23:00 +14°C° 0 mm 1 m/s 757 mmHg 39%

    Poimâine, 22 Noiembrie, Miercuri

    Timp Temperatura Precipitaţii Vânt Presiune Umiditate
    00:00 +14°C° 0 mm 1 m/s 756 mmHg 40%
    01:00 +13°C° 0 mm 1 m/s 756 mmHg 41%
    02:00 +13°C° 0 mm 1 m/s 756 mmHg 41%
    03:00 +13°C° 0 mm 1 m/s 756 mmHg 42%
    04:00 +11°C° 0 mm 0 m/s 756 mmHg 42%
    05:00 +11°C° 0 mm 0 m/s 756 mmHg 43%
    06:00 +11°C° 0 mm 0 m/s 756 mmHg 43%
    07:00 +13°C° 0 mm 0 m/s 756 mmHg 38%
    08:00 +15°C° 0 mm 0 m/s 756 mmHg 33%
    09:00 +17°C° 0 mm 0 m/s 756 mmHg 28%
    10:00 +19°C° 0 mm 1 m/s 756 mmHg 26%
    11:00 +20°C° 0 mm 1 m/s 755 mmHg 24%
    12:00 +21°C° 0 mm 1 m/s 755 mmHg 22%
    13:00 +21°C° 0 mm 1 m/s 755 mmHg 22%
    14:00 +21°C° 0 mm 1 m/s 754 mmHg 21%
    15:00 +21°C° 0 mm 1 m/s 754 mmHg 21%
    16:00 +20°C° 0 mm 1 m/s 754 mmHg 24%
    17:00 +19°C° 0 mm 1 m/s 755 mmHg 27%
    18:00 +16°C° 0 mm 0 m/s 755 mmHg 30%
    19:00 +15°C° 0 mm 0 m/s 755 mmHg 31%
    20:00 +16°C° 0 mm 1 m/s 756 mmHg 32%
    21:00 +15°C° 0 mm 1 m/s 756 mmHg 33%
    22:00 +14°C° 0 mm 0 m/s 756 mmHg 33%
    23:00 +13°C° 0 mm 0 m/s 756 mmHg 33%

    23 Noiembrie, Joi

    Timp Temperatura Precipitaţii Vânt Presiune Umiditate
    00:00 +13°C° 0 mm 0 m/s 755 mmHg 33%
    01:00 +14°C° 0 mm 1 m/s 755 mmHg 33%
    02:00 +14°C° 0 mm 1 m/s 755 mmHg 33%
    03:00 +13°C° 0 mm 1 m/s 755 mmHg 33%
    04:00 +13°C° 0 mm 1 m/s 755 mmHg 33%
    05:00 +12°C° 0 mm 0 m/s 755 mmHg 34%
    06:00 +12°C° 0 mm 0 m/s 755 mmHg 34%
    07:00 +14°C° 0 mm 0 m/s 756 mmHg 30%
    08:00 +16°C° 0 mm 0 m/s 756 mmHg 26%
    09:00 +20°C° 0 mm 1 m/s 757 mmHg 22%
    10:00 +20°C° 0 mm 1 m/s 757 mmHg 21%
    11:00 +21°C° 0 mm 1 m/s 756 mmHg 20%
    12:00 +22°C° 0 mm 1 m/s 756 mmHg 19%
    13:00 +22°C° 0 mm 1 m/s 756 mmHg 19%
    14:00 +22°C° 0 mm 1 m/s 756 mmHg 19%
    15:00 +22°C° 0 mm 1 m/s 756 mmHg 19%
    16:00 +21°C° 0 mm 1 m/s 756 mmHg 22%
    17:00 +20°C° 0 mm 1 m/s 756 mmHg 24%
    18:00 +16°C° 0 mm 0 m/s 757 mmHg 27%
    19:00 +18°C° 0 mm 1 m/s 757 mmHg 27%
    20:00 +16°C° 0 mm 1 m/s 757 mmHg 27%
    21:00 +16°C° 0 mm 1 m/s 758 mmHg 28%
    22:00 +16°C° 0 mm 1 m/s 758 mmHg 28%
    23:00 +15°C° 0 mm 1 m/s 757 mmHg 28%

    24 Noiembrie, Vineri

    Timp Temperatura Precipitaţii Vânt Presiune Umiditate
    00:00 +15°C° 0 mm 1 m/s 757 mmHg 29%
    01:00 +15°C° 0 mm 1 m/s 757 mmHg 29%
    02:00 +14°C° 0 mm 1 m/s 757 mmHg 30%
    03:00 +14°C° 0 mm 1 m/s 757 mmHg 30%
    04:00 +14°C° 0 mm 1 m/s 757 mmHg 31%
    05:00 +13°C° 0 mm 1 m/s 757 mmHg 31%
    06:00 +13°C° 0 mm 1 m/s 757 mmHg 32%
    07:00 +14°C° 0 mm 0 m/s 758 mmHg 28%
    08:00 +16°C° 0 mm 0 m/s 758 mmHg 25%
    09:00 +18°C° 0 mm 0 m/s 758 mmHg 22%
    10:00 +19°C° 0 mm 0 m/s 758 mmHg 21%
    11:00 +22°C° 0 mm 1 m/s 758 mmHg 21%
    12:00 +22°C° 0 mm 1 m/s 757 mmHg 21%
    13:00 +22°C° 0 mm 1 m/s 757 mmHg 21%
    14:00 +23°C° 0 mm 1 m/s 757 mmHg 22%
    15:00 +23°C° 0 mm 1 m/s 757 mmHg 22%
    16:00 +21°C° 0 mm 1 m/s 757 mmHg 26%
    17:00 +20°C° 0 mm 1 m/s 757 mmHg 30%
    18:00 +18°C° 0 mm 1 m/s 757 mmHg 34%
    19:00 +18°C° 0 mm 1 m/s 758 mmHg 35%
    20:00 +16°C° 0 mm 1 m/s 758 mmHg 36%
    21:00 +16°C° 0 mm 1 m/s 758 mmHg 37%
    22:00 +15°C° 0 mm 1 m/s 758 mmHg 38%
    23:00 +15°C° 0 mm 1 m/s 758 mmHg 39%

    25 Noiembrie, Sâmbătă

    Timp Temperatura Precipitaţii Vânt Presiune Umiditate
    00:00 +15°C° 0 mm 1 m/s 758 mmHg 40%
    01:00 +14°C° 0 mm 1 m/s 758 mmHg 41%
    02:00 +14°C° 0 mm 1 m/s 758 mmHg 43%
    03:00 +14°C° 0 mm 1 m/s 758 mmHg 45%
    04:00 +13°C° 0 mm 1 m/s 758 mmHg 48%
    05:00 +13°C° 0 mm 1 m/s 758 mmHg 51%
    06:00 +13°C° 0 mm 1 m/s 758 mmHg 54%
    07:00 +15°C° 0 mm 1 m/s 758 mmHg 52%
    08:00 +16°C° 0 mm 1 m/s 759 mmHg 49%
    09:00 +19°C° 0 mm 1 m/s 759 mmHg 46%
    10:00 +20°C° 0 mm 1 m/s 759 mmHg 46%
    11:00 +20°C° 0 mm 1 m/s 758 mmHg 46%
    12:00 +21°C° 0 mm 1 m/s 758 mmHg 46%
    13:00 +21°C° 0 mm 1 m/s 758 mmHg 46%
    14:00 +21°C° 0 mm 1 m/s 757 mmHg 46%
    15:00 +21°C° 0 mm 1 m/s 757 mmHg 46%
    16:00 +20°C° 0 mm 1 m/s 757 mmHg 51%
    17:00 +19°C° 0 mm 1 m/s 758 mmHg 57%
    18:00 +18°C° 0 mm 1 m/s 758 mmHg 63%
    19:00 +18°C° 0 mm 1 m/s 758 mmHg 65%
    20:00 +16°C° 0 mm 1 m/s 758 mmHg 67%
    21:00 +16°C° 0 mm 1 m/s 759 mmHg 69%
    22:00 +15°C° 0 mm 1 m/s 759 mmHg 71%
    23:00 +15°C° 0 mm 1 m/s 759 mmHg 72%
    Arată mai mult